Total_Precipitation_Accumulation
2.56 2.84 2.78 2.59 2.73 2.85 3.14 3.39 3.59 3.30 3.01 2.78 2.42 2.18 2.20 2.38 2.63 2.33 2.29 2.25 2.00 1.94 1.87 1.76 1.72 1.80 1.92 2.13 2.30 2.49 2.81 3.04 3.28 3.55 3.82 4.14 4.47 4.82
2.64 2.84 2.77 2.64 2.79 2.84 3.06 3.40 3.77 3.79 3.21 2.61 2.44 2.26 2.43 2.40 2.61 2.27 2.16 2.24 2.02 1.83 1.74 1.72 1.68 1.72 1.76 1.88 2.07 2.23 2.38 2.55 2.75 2.93 3.13 3.36 3.61 3.98
2.49 2.66 2.73 2.87 2.95 2.93 3.07 3.25 3.57 3.85 3.44 2.76 2.60 2.58 2.75 2.69 2.55 2.25 2.00 1.92 1.75 1.75 1.60 1.55 1.55 1.65 1.76 1.78 1.92 2.07 2.12 2.23 2.46 2.63 2.82 3.02 3.12 3.36
2.52 2.69 2.60 2.82 3.02 2.96 3.08 3.06 3.21 3.60 3.47 3.10 2.99 2.90 2.89 2.75 2.72 2.52 2.12 1.90 1.84 1.87 1.65 1.54 1.53 1.55 1.67 1.70 1.78 1.93 2.05 2.13 2.21 2.29 2.36 2.52 2.73 2.94
2.54 2.56 2.55 2.80 2.82 2.95 3.06 3.00 3.00 3.14 3.39 3.23 3.12 3.19 3.08 2.94 2.93 2.70 2.44 2.40 2.01 1.92 1.84 1.74 1.73 1.74 1.78 1.81 1.81 1.85 1.96 2.08 2.18 2.30 2.40 2.47 2.54 2.66
2.54 2.50 2.46 2.52 2.60 2.76 2.83 2.95 3.03 3.16 3.31 3.28 3.28 3.39 3.31 3.30 3.38 3.13 2.91 2.80 2.41 1.99 2.05 1.92 1.87 1.77 1.71 1.71 1.73 1.77 1.88 2.09 2.27 2.31 2.36 2.44 2.51 2.51
2.57 2.48 2.34 2.36 2.46 2.53 2.42 2.62 2.84 2.95 2.96 3.05 3.13 3.37 3.38 3.47 3.43 3.29 3.14 3.12 2.88 2.35 2.20 2.06 2.01 1.88 1.86 1.92 1.88 1.82 1.79 1.88 2.12 2.31 2.35 2.41 2.50 2.51
2.62 2.59 2.42 2.28 2.23 2.17 2.06 2.12 2.30 2.45 2.62 2.88 3.00 3.17 3.34 3.49 3.75 3.76 3.59 3.38 3.14 2.81 2.73 2.55 2.28 2.19 2.01 1.89 1.99 1.87 1.66 1.64 1.71 1.88 2.05 2.22 2.40 2.57
2.50 2.50 2.18 1.99 2.11 1.98 2.00 2.00 2.02 2.16 2.31 2.61 2.78 2.84 3.09 3.33 3.68 3.76 3.79 3.70 3.45 3.26 3.16 2.94 2.61 2.37 2.11 2.00 2.06 1.85 1.69 1.54 1.50 1.53 1.63 1.81 1.99 2.20
2.24 2.27 2.23 2.17 2.18 2.27 2.16 1.99 1.89 1.99 2.15 2.10 2.11 2.29 2.58 3.05 3.31 3.35 3.56 3.58 3.42 3.20 3.17 3.04 2.71 2.47 2.22 2.14 2.16 1.89 1.75 1.70 1.62 1.49 1.44 1.52 1.68 1.84
2.09 2.11 2.11 2.05 2.20 2.15 2.03 1.98 1.97 2.02 1.98 1.96 1.90 1.94 2.10 2.38 2.80 3.00 3.10 3.08 2.88 2.61 2.55 2.58 2.44 2.44 2.35 2.21 2.04 1.93 1.74 1.61 1.51 1.50 1.45 1.43 1.53 1.69
2.16 2.09 2.01 1.90 1.95 1.91 1.87 1.99 1.95 1.97 2.06 1.98 1.82 1.71 1.66 1.88 2.31 2.50 2.63 2.73 2.56 2.41 2.13 2.15 2.10 2.23 2.27 2.01 1.85 1.83 1.79 1.80 1.69 1.54 1.46 1.43 1.57 1.54
2.09 2.06 1.96 1.96 1.75 1.70 1.69 1.70 1.75 1.82 1.96 1.98 1.91 1.83 1.83 1.85 1.97 2.19 2.42 2.54 2.52 2.26 2.12 2.19 2.14 2.18 2.19 2.03 1.87 1.79 1.82 1.91 1.91 1.86 1.81 1.78 1.82 1.73
2.00 1.95 1.95 1.90 1.70 1.65 1.58 1.56 1.64 1.60 1.57 1.70 1.72 1.68 1.70 1.73 1.83 2.04 2.27 2.40 2.44 2.26 2.25 2.38 2.35 2.28 2.25 2.05 1.83 1.70 1.72 1.86 2.03 2.13 2.12 2.20 2.15 2.21
1.91 1.97 1.91 1.79 1.57 1.40 1.42 1.44 1.38 1.32 1.43 1.57 1.59 1.52 1.52 1.57 1.68 1.87 2.05 2.27 2.25 2.12 2.07 2.27 2.37 2.36 2.34 2.11 1.86 1.72 1.71 1.71 1.82 2.04 2.28 2.40 2.35 2.37
1.98 1.98 1.85 1.73 1.51 1.38 1.41 1.36 1.28 1.34 1.46 1.50 1.54 1.55 1.54 1.56 1.60 1.70 1.86 2.04 2.11 1.99 2.00 2.12 2.30 2.53 2.47 2.23 2.14 1.92 1.86 1.81 1.72 1.91 2.24 2.52 2.69 2.72
2.23 2.07 1.89 1.78 1.64 1.54 1.53 1.57 1.61 1.64 1.59 1.57 1.65 1.73 1.71 1.62 1.58 1.66 1.90 2.00 1.98 1.90 1.94 2.03 2.18 2.44 2.49 2.39 2.31 2.09 2.05 1.95 1.86 2.01 2.26 2.37 2.50 2.69
2.11 1.96 1.92 1.87 1.78 1.75 1.77 1.77 1.77 1.77 1.72 1.75 1.78 1.81 1.81 1.74 1.70 1.73 1.90 2.01 1.99 1.93 1.93 2.01 2.27 2.55 2.59 2.34 2.03 1.98 2.00 1.96 1.95 2.17 2.34 2.34 2.32 2.36
2.09 2.04 1.98 1.95 1.86 1.82 1.87 1.87 1.79 1.79 1.85 1.88 1.89 1.90 2.00 2.06 2.07 2.04 2.06 2.18 2.18 2.11 2.05 2.14 2.34 2.53 2.51 2.18 1.89 1.77 1.93 2.08 2.24 2.33 2.45 2.43 2.30 2.28
1.90 1.93 1.91 1.92 1.94 1.95 1.96 1.95 1.92 1.93 1.93 1.94 2.02 2.08 2.20 2.28 2.34 2.32 2.26 2.23 2.25 2.28 2.29 2.28 2.29 2.38 2.50 2.42 2.24 2.10 2.02 2.14 2.34 2.43 2.41 2.40 2.34 2.35
1.86 1.86 1.84 1.84 1.90 1.94 1.94 1.96 1.98 2.04 2.09 2.16 2.20 2.26 2.33 2.37 2.33 2.29 2.27 2.33 2.34 2.41 2.34 2.13 2.10 2.33 2.53 2.74 2.52 2.17 2.10 2.13 2.20 2.26 2.33 2.46 2.45 2.42
1.84 1.80 1.80 1.82 1.90 1.97 2.02 2.04 2.08 2.14 2.22 2.32 2.32 2.34 2.40 2.39 2.31 2.30 2.36 2.40 2.35 2.34 2.34 2.29 2.40 2.55 2.64 2.66 2.42 2.22 2.23 2.27 2.27 2.29 2.29 2.24 2.21 2.14
1.87 1.83 1.80 1.74 1.73 1.80 1.87 1.92 1.97 2.05 2.11 2.20 2.26 2.31 2.38 2.38 2.33 2.36 2.44 2.53 2.58 2.57 2.65 2.68 2.66 2.65 2.54 2.48 2.44 2.33 2.28 2.40 2.47 2.43 2.32 2.16 1.86 1.60